Wetterdaten: Montag, 11.11.2013
Datum Zeit Temperatur Luftfeuchte Luftdruck Regen Wind Richtung Richtung Taupunkt Windchill Windben
11.11.2013 00:00 0,3 C 97 % 1019,2 hPa 0,0 l/m 0,0 km/h (0 Bft) S 180 -0,1 C -1,1 C 0,0 km/h (0 Bft)
11.11.2013 00:05 0,4 C 97 % 1019,2 hPa 0,0 l/m 0,0 km/h (0 Bft) S 180 -0,0 C -1,1 C 0,0 km/h (0 Bft)
11.11.2013 00:10 0,4 C 97 % 1019,6 hPa 0,0 l/m 0,0 km/h (0 Bft) S 180 -0,0 C -1,1 C 0,0 km/h (0 Bft)
11.11.2013 00:15 0,4 C 97 % 1019,6 hPa 0,0 l/m 0,0 km/h (0 Bft) S 180 -0,0 C -1,1 C 0,0 km/h (0 Bft)
11.11.2013 00:20 0,3 C 97 % 1019,6 hPa 0,0 l/m 0,0 km/h (0 Bft) S 180 -0,1 C -1,1 C 0,0 km/h (0 Bft)
11.11.2013 00:25 0,3 C 97 % 1019,6 hPa 0,0 l/m 0,0 km/h (0 Bft) S 180 -0,1 C -1,1 C 0,0 km/h (0 Bft)
11.11.2013 00:30 0,3 C 97 % 1019,8 hPa 0,0 l/m 0,0 km/h (0 Bft) S 180 -0,1 C -1,1 C 0,0 km/h (0 Bft)
11.11.2013 00:35 0,3 C 97 % 1019,8 hPa 0,0 l/m 0,0 km/h (0 Bft) S 180 -0,1 C -1,1 C 0,0 km/h (0 Bft)
11.11.2013 00:40 0,3 C 97 % 1019,8 hPa 0,0 l/m 0,0 km/h (0 Bft) S 180 -0,1 C -1,1 C 0,0 km/h (0 Bft)
11.11.2013 00:45 0,3 C 97 % 1019,8 hPa 0,0 l/m 0,0 km/h (0 Bft) S 180 -0,1 C -1,1 C 0,0 km/h (0 Bft)
11.11.2013 00:50 0,3 C 98 % 1020,2 hPa 0,0 l/m 0,0 km/h (0 Bft) S 180 0,0 C -1,1 C 0,0 km/h (0 Bft)
11.11.2013 00:55 0,3 C 98 % 1020,2 hPa 0,0 l/m 0,0 km/h (0 Bft) S 180 0,0 C -1,1 C 0,0 km/h (0 Bft)
11.11.2013 01:00 0,3 C 98 % 1020,2 hPa 0,0 l/m 0,0 km/h (0 Bft) S 180 0,0 C -1,1 C 0,0 km/h (0 Bft)
11.11.2013 01:05 0,3 C 98 % 1020,2 hPa 0,0 l/m 0,0 km/h (0 Bft) S 180 0,0 C -1,1 C 0,0 km/h (0 Bft)
11.11.2013 01:10 0,3 C 98 % 1020,6 hPa 0,0 l/m 0,0 km/h (0 Bft) S 180 0,0 C -1,1 C 0,0 km/h (0 Bft)
11.11.2013 01:15 0,3 C 98 % 1020,6 hPa 0,0 l/m 0,0 km/h (0 Bft) S 180 0,0 C -1,1 C 0,0 km/h (0 Bft)
11.11.2013 01:20 0,4 C 98 % 1020,6 hPa 0,0 l/m 0,0 km/h (0 Bft) S 180 0,1 C -1,1 C 0,0 km/h (0 Bft)
11.11.2013 01:25 0,4 C 98 % 1020,6 hPa 0,0 l/m 0,0 km/h (0 Bft) S 180 0,1 C -1,1 C 0,0 km/h (0 Bft)
11.11.2013 01:30 0,3 C 98 % 1021,0 hPa 0,0 l/m 0,0 km/h (0 Bft) S 180 0,0 C -1,1 C 0,0 km/h (0 Bft)
11.11.2013 01:35 0,3 C 98 % 1021,0 hPa 0,0 l/m 0,0 km/h (0 Bft) S 180 0,0 C -1,1 C 0,0 km/h (0 Bft)
11.11.2013 01:40 0,4 C 98 % 1021,0 hPa 0,0 l/m 0,0 km/h (0 Bft) S 180 0,1 C -1,1 C 0,0 km/h (0 Bft)
11.11.2013 01:45 0,4 C 98 % 1021,0 hPa 0,0 l/m 0,0 km/h (0 Bft) S 180 0,1 C -1,1 C 0,0 km/h (0 Bft)
11.11.2013 01:50 0,4 C 98 % 1021,2 hPa 0,0 l/m 0,0 km/h (0 Bft) S 180 0,1 C -1,1 C 0,0 km/h (0 Bft)
11.11.2013 01:55 0,4 C 98 % 1021,2 hPa 0,0 l/m 0,0 km/h (0 Bft) S 180 0,1 C -1,1 C 0,0 km/h (0 Bft)
11.11.2013 02:00 0,5 C 98 % 1021,2 hPa 0,0 l/m 0,0 km/h (0 Bft) S 180 0,2 C -1,1 C 0,0 km/h (0 Bft)
11.11.2013 02:05 0,5 C 98 % 1021,2 hPa 0,0 l/m 0,0 km/h (0 Bft) S 180 0,2 C -1,1 C 0,0 km/h (0 Bft)
11.11.2013 02:10 0,5 C 98 % 1021,4 hPa 0,0 l/m 0,0 km/h (0 Bft) S 180 0,2 C -1,1 C 0,0 km/h (0 Bft)
11.11.2013 02:15 0,5 C 98 % 1021,4 hPa 0,0 l/m 0,0 km/h (0 Bft) S 180 0,2 C -1,1 C 0,0 km/h (0 Bft)
11.11.2013 02:20 0,5 C 98 % 1021,4 hPa 0,0 l/m 0,0 km/h (0 Bft) S 180 0,2 C -1,1 C 0,0 km/h (0 Bft)
11.11.2013 02:25 0,5 C 98 % 1021,4 hPa 0,0 l/m 0,0 km/h (0 Bft) S 180 0,2 C -1,1 C 0,0 km/h (0 Bft)
11.11.2013 02:30 0,5 C 98 % 1021,8 hPa 0,0 l/m 0,0 km/h (0 Bft) S 180 0,2 C -1,1 C 0,0 km/h (0 Bft)
11.11.2013 02:35 0,5 C 98 % 1021,8 hPa 0,0 l/m 0,0 km/h (0 Bft) S 180 0,2 C -1,1 C 0,0 km/h (0 Bft)
11.11.2013 02:40 0,6 C 98 % 1021,8 hPa 0,0 l/m 0,0 km/h (0 Bft) S 180 0,3 C -1,1 C 0,0 km/h (0 Bft)
11.11.2013 02:45 0,5 C 98 % 1021,8 hPa 0,0 l/m 0,0 km/h (0 Bft) S 180 0,2 C -1,1 C 0,0 km/h (0 Bft)
11.11.2013 02:50 0,5 C 98 % 1022,1 hPa 0,0 l/m 0,0 km/h (0 Bft) S 180 0,2 C -1,1 C 0,0 km/h (0 Bft)
11.11.2013 02:55 0,5 C 98 % 1022,1 hPa 0,0 l/m 0,0 km/h (0 Bft) S 180 0,2 C -1,1 C 0,0 km/h (0 Bft)
11.11.2013 03:00 0,5 C 98 % 1022,1 hPa 0,0 l/m 0,0 km/h (0 Bft) S 180 0,2 C -1,1 C 0,0 km/h (0 Bft)
11.11.2013 03:05 0,5 C 98 % 1022,1 hPa 0,0 l/m 0,0 km/h (0 Bft) S 180 0,2 C -1,1 C 0,0 km/h (0 Bft)
11.11.2013 03:10 0,5 C 98 % 1022,4 hPa 0,0 l/m 0,0 km/h (0 Bft) S 180 0,2 C -1,1 C 0,0 km/h (0 Bft)
11.11.2013 03:15 0,6 C 98 % 1022,4 hPa 0,0 l/m 0,0 km/h (0 Bft) S 180 0,3 C -1,1 C 0,0 km/h (0 Bft)
11.11.2013 03:20 0,5 C 98 % 1022,4 hPa 0,0 l/m 0,0 km/h (0 Bft) S 180 0,2 C -1,1 C 0,0 km/h (0 Bft)
11.11.2013 03:25 0,5 C 98 % 1022,4 hPa 0,0 l/m 0,0 km/h (0 Bft) S 180 0,2 C -1,1 C 0,0 km/h (0 Bft)
11.11.2013 03:30 0,6 C 98 % 1022,8 hPa 0,0 l/m 0,0 km/h (0 Bft) S 180 0,3 C -1,1 C 0,0 km/h (0 Bft)
11.11.2013 03:35 0,5 C 98 % 1022,8 hPa 0,0 l/m 0,0 km/h (0 Bft) S 180 0,2 C -1,1 C 0,0 km/h (0 Bft)
11.11.2013 03:40 0,5 C 98 % 1022,8 hPa 0,0 l/m 0,0 km/h (0 Bft) S 180 0,2 C -1,1 C 0,0 km/h (0 Bft)
11.11.2013 03:45 0,5 C 98 % 1022,8 hPa 0,0 l/m 0,0 km/h (0 Bft) S 180 0,2 C -1,1 C 0,0 km/h (0 Bft)
11.11.2013 03:50 0,5 C 98 % 1022,9 hPa 0,0 l/m 0,0 km/h (0 Bft) S 180 0,2 C -1,1 C 0,0 km/h (0 Bft)
11.11.2013 03:55 0,5 C 98 % 1022,9 hPa 0,0 l/m 0,0 km/h (0 Bft) S 180 0,2 C -1,1 C 0,0 km/h (0 Bft)
11.11.2013 04:00 0,5 C 98 % 1022,9 hPa 0,0 l/m 2,9 km/h (1 Bft) W-SW 247 0,2 C 0,4 C 5,0 km/h (1 Bft)
11.11.2013 04:05 0,5 C 98 % 1022,9 hPa 0,0 l/m 3,7 km/h (1 Bft) S 180 0,2 C -0,1 C 4,0 km/h (1 Bft)
11.11.2013 04:10 0,4 C 98 % 1023,1 hPa 0,0 l/m 4,0 km/h (1 Bft) S 180 0,1 C -0,3 C 6,8 km/h (2 Bft)
11.11.2013 04:15 0,5 C 98 % 1023,1 hPa 0,0 l/m 4,0 km/h (1 Bft) S 180 0,2 C -0,4 C 7,2 km/h (2 Bft)
11.11.2013 04:20 0,4 C 98 % 1023,1 hPa 0,0 l/m 3,5 km/h (1 Bft) S-SW 202 0,1 C -0,1 C 5,3 km/h (1 Bft)
11.11.2013 04:25 0,4 C 98 % 1023,1 hPa 0,0 l/m 3,5 km/h (1 Bft) S-SO 157 0,1 C -0,1 C 3,4 km/h (1 Bft)
11.11.2013 04:30 0,4 C 98 % 1023,2 hPa 0,0 l/m 3,5 km/h (1 Bft) W-NW 292 0,1 C -0,1 C 5,5 km/h (1 Bft)
11.11.2013 04:35 0,4 C 98 % 1023,2 hPa 0,0 l/m 3,5 km/h (1 Bft) S 180 0,1 C -0,1 C 3,1 km/h (1 Bft)
11.11.2013 04:40 0,4 C 98 % 1023,2 hPa 0,0 l/m 4,0 km/h (1 Bft) S-SO 157 0,1 C -0,3 C 6,4 km/h (2 Bft)
11.11.2013 04:45 0,4 C 98 % 1023,2 hPa 0,0 l/m 3,5 km/h (1 Bft) O-SO 112 0,1 C -0,1 C 2,9 km/h (1 Bft)
11.11.2013 04:50 0,4 C 98 % 1023,6 hPa 0,0 l/m 3,2 km/h (1 Bft) S 180 0,1 C 0,1 C 4,2 km/h (1 Bft)
11.11.2013 04:55 0,4 C 98 % 1023,6 hPa 0,0 l/m 2,9 km/h (1 Bft) SO 135 0,1 C 0,3 C 4,7 km/h (1 Bft)
11.11.2013 05:00 0,4 C 98 % 1023,6 hPa 0,0 l/m 1,9 km/h (1 Bft) S 180 0,1 C 0,6 C 3,2 km/h (1 Bft)
11.11.2013 05:05 0,4 C 98 % 1023,6 hPa 0,0 l/m 1,6 km/h (1 Bft) S 180 0,1 C 0,6 C 2,3 km/h (1 Bft)
11.11.2013 05:10 0,4 C 98 % 1023,8 hPa 0,0 l/m 1,8 km/h (1 Bft) S 180 0,1 C 0,6 C 5,6 km/h (1 Bft)
11.11.2013 05:15 0,4 C 98 % 1023,8 hPa 0,0 l/m 2,4 km/h (1 Bft) O 90 0,1 C 0,6 C 3,2 km/h (1 Bft)
11.11.2013 05:20 0,4 C 98 % 1023,8 hPa 0,0 l/m 1,8 km/h (1 Bft) N-NO 22 0,1 C 0,6 C 2,3 km/h (1 Bft)
11.11.2013 05:25 0,4 C 98 % 1023,8 hPa 0,0 l/m 1,0 km/h (0 Bft) S 180 0,1 C 0,5 C 5,0 km/h (1 Bft)
11.11.2013 05:30 0,4 C 98 % 1024,1 hPa 0,0 l/m 0,8 km/h (0 Bft) S-SO 157 0,1 C 0,6 C 4,8 km/h (1 Bft)
11.11.2013 05:35 0,4 C 98 % 1024,1 hPa 0,0 l/m 1,9 km/h (1 Bft) S 180 0,1 C 0,6 C 5,1 km/h (1 Bft)
11.11.2013 05:40 0,4 C 98 % 1024,1 hPa 0,0 l/m 2,4 km/h (1 Bft) O-SO 112 0,1 C 0,6 C 0,0 km/h (0 Bft)
11.11.2013 05:45 0,4 C 98 % 1024,1 hPa 0,0 l/m 1,8 km/h (1 Bft) O-SO 112 0,1 C 0,6 C 2,3 km/h (1 Bft)
11.11.2013 05:50 0,4 C 98 % 1024,3 hPa 0,0 l/m 1,3 km/h (1 Bft) O-SO 112 0,1 C 0,5 C 3,1 km/h (1 Bft)
11.11.2013 05:55 0,4 C 98 % 1024,3 hPa 0,0 l/m 1,9 km/h (1 Bft) O 90 0,1 C 0,5 C 4,2 km/h (1 Bft)
11.11.2013 06:00 0,4 C 98 % 1024,3 hPa 0,0 l/m 2,7 km/h (1 Bft) O 90 0,1 C 0,2 C 2,9 km/h (1 Bft)
11.11.2013 06:05 0,4 C 98 % 1024,3 hPa 0,0 l/m 2,1 km/h (1 Bft) S 180 0,1 C 0,4 C 0,0 km/h (0 Bft)
11.11.2013 06:10 0,4 C 98 % 1024,5 hPa 0,0 l/m 1,1 km/h (1 Bft) O-NO 67 0,1 C 0,4 C 0,0 km/h (0 Bft)
11.11.2013 06:15 0,4 C 98 % 1024,5 hPa 0,0 l/m 0,8 km/h (0 Bft) O-SO 112 0,1 C 0,4 C 0,0 km/h (0 Bft)
11.11.2013 06:20 0,4 C 98 % 1024,5 hPa 0,0 l/m 0,8 km/h (0 Bft) S 180 0,1 C 0,4 C 0,0 km/h (0 Bft)
11.11.2013 06:25 0,4 C 98 % 1024,5 hPa 0,0 l/m 0,5 km/h (0 Bft) SO 135 0,1 C 0,5 C 3,1 km/h (1 Bft)
11.11.2013 06:30 0,4 C 98 % 1024,7 hPa 0,0 l/m 1,6 km/h (1 Bft) S-SO 157 0,1 C 0,5 C 4,2 km/h (1 Bft)
11.11.2013 06:35 0,3 C 98 % 1024,7 hPa 0,0 l/m 1,9 km/h (1 Bft) O-SO 112 0,0 C 0,5 C 1,8 km/h (1 Bft)
11.11.2013 06:40 0,3 C 98 % 1024,7 hPa 0,0 l/m 1,1 km/h (1 Bft) O-NO 67 0,0 C 0,4 C 0,0 km/h (0 Bft)
11.11.2013 06:45 0,3 C 98 % 1024,7 hPa 0,0 l/m 0,2 km/h (0 Bft) O-SO 112 0,0 C 0,3 C 0,0 km/h (0 Bft)
11.11.2013 06:50 0,3 C 98 % 1024,9 hPa 0,0 l/m 0,0 km/h (0 Bft) S 180 0,0 C 0,2 C 0,0 km/h (0 Bft)
11.11.2013 06:55 0,3 C 98 % 1024,9 hPa 0,0 l/m 0,0 km/h (0 Bft) O-SO 112 0,0 C 0,2 C 0,0 km/h (0 Bft)
11.11.2013 07:00 0,3 C 98 % 1024,9 hPa 0,0 l/m 0,0 km/h (0 Bft) O 90 0,0 C 0,2 C 0,0 km/h (0 Bft)
11.11.2013 07:05 0,3 C 98 % 1024,9 hPa 0,0 l/m 0,0 km/h (0 Bft) S-SO 157 0,0 C 0,2 C 0,0 km/h (0 Bft)
11.11.2013 07:10 0,3 C 98 % 1025,1 hPa 0,0 l/m 0,0 km/h (0 Bft) S 180 0,0 C 0,2 C 0,0 km/h (0 Bft)
11.11.2013 07:15 0,3 C 98 % 1025,1 hPa 0,0 l/m 0,0 km/h (0 Bft) S 180 0,0 C 0,2 C 0,0 km/h (0 Bft)
11.11.2013 07:20 0,3 C 98 % 1025,1 hPa 0,0 l/m 0,0 km/h (0 Bft) O-NO 67 0,0 C 0,2 C 0,0 km/h (0 Bft)
11.11.2013 07:25 0,3 C 98 % 1025,1 hPa 0,0 l/m 0,0 km/h (0 Bft) O-NO 67 0,0 C 0,1 C 0,0 km/h (0 Bft)
11.11.2013 07:30 0,3 C 98 % 1025,4 hPa 0,0 l/m 0,0 km/h (0 Bft) O-NO 67 0,0 C 0,1 C 0,0 km/h (0 Bft)
11.11.2013 07:35 0,3 C 98 % 1025,4 hPa 0,0 l/m 0,0 km/h (0 Bft) O-NO 67 0,0 C 0,1 C 0,0 km/h (0 Bft)
11.11.2013 07:40 0,3 C 98 % 1025,4 hPa 0,0 l/m 0,8 km/h (0 Bft) O 90 0,0 C 0,1 C 3,1 km/h (1 Bft)
11.11.2013 07:45 0,3 C 98 % 1025,4 hPa 0,0 l/m 1,8 km/h (1 Bft) O-NO 67 0,0 C 0,1 C 2,7 km/h (1 Bft)
11.11.2013 07:50 0,3 C 98 % 1025,6 hPa 0,0 l/m 2,1 km/h (1 Bft) NO 45 0,0 C 0,2 C 0,0 km/h (0 Bft)
11.11.2013 07:55 0,3 C 98 % 1025,6 hPa 0,0 l/m 1,1 km/h (1 Bft) N-NO 22 0,0 C 0,2 C 0,0 km/h (0 Bft)
11.11.2013 08:00 0,4 C 98 % 1025,6 hPa 0,0 l/m 0,2 km/h (0 Bft) SO 135 0,1 C 0,3 C 0,0 km/h (0 Bft)
11.11.2013 08:05 0,4 C 98 % 1025,6 hPa 0,0 l/m 0,0 km/h (0 Bft) O-SO 112 0,1 C 0,3 C 0,0 km/h (0 Bft)
11.11.2013 08:10 0,5 C 98 % 1026,0 hPa 0,0 l/m 0,5 km/h (0 Bft) O-SO 112 0,2 C 0,5 C 2,9 km/h (1 Bft)
11.11.2013 08:15 0,5 C 98 % 1026,0 hPa 0,0 l/m 1,3 km/h (1 Bft) S 180 0,2 C 0,5 C 3,5 km/h (1 Bft)
11.11.2013 08:20 0,6 C 98 % 1026,0 hPa 0,0 l/m 2,1 km/h (1 Bft) NO 45 0,3 C 0,7 C 0,0 km/h (0 Bft)
11.11.2013 08:25 0,6 C 98 % 1026,0 hPa 0,0 l/m 1,8 km/h (1 Bft) N-NW 337 0,3 C 0,7 C 0,0 km/h (0 Bft)
11.11.2013 08:30 0,7 C 98 % 1026,2 hPa 0,0 l/m 0,5 km/h (0 Bft) O-NO 67 0,4 C 0,7 C 0,0 km/h (0 Bft)
11.11.2013 08:35 0,7 C 98 % 1026,2 hPa 0,0 l/m 0,0 km/h (0 Bft) NO 45 0,4 C 0,8 C 0,0 km/h (0 Bft)
11.11.2013 08:40 0,7 C 98 % 1026,2 hPa 0,0 l/m 0,0 km/h (0 Bft) O-NO 67 0,4 C 0,9 C 0,0 km/h (0 Bft)
11.11.2013 08:45 0,8 C 98 % 1026,2 hPa 0,0 l/m 0,0 km/h (0 Bft) N 360 0,5 C 1,0 C 0,0 km/h (0 Bft)
11.11.2013 08:48 0,9 C 98 % 1026,3 hPa 0,0 l/m 0,0 km/h (0 Bft) W-SW 247 0,6 C 1,1 C 0,0 km/h (0 Bft)
11.11.2013 08:50 0,9 C 98 % 1026,3 hPa 0,0 l/m 0,0 km/h (0 Bft) W-SW 247 0,6 C 1,1 C 0,0 km/h (0 Bft)
11.11.2013 08:55 0,9 C 98 % 1026,3 hPa 0,0 l/m 0,0 km/h (0 Bft) SW 225 0,6 C 1,2 C 0,0 km/h (0 Bft)
11.11.2013 09:00 1,0 C 98 % 1026,3 hPa 0,0 l/m 0,0 km/h (0 Bft) SW 225 0,7 C 1,2 C 0,0 km/h (0 Bft)
11.11.2013 09:05 1,0 C 98 % 1026,3 hPa 0,0 l/m 0,0 km/h (0 Bft) W-SW 247 0,7 C 1,3 C 0,0 km/h (0 Bft)
11.11.2013 09:10 1,0 C 98 % 1026,7 hPa 0,0 l/m 0,0 km/h (0 Bft) S 180 0,7 C 1,3 C 0,0 km/h (0 Bft)
11.11.2013 09:15 1,0 C 98 % 1026,7 hPa 0,0 l/m 0,0 km/h (0 Bft) O 90 0,7 C 1,4 C 0,0 km/h (0 Bft)
11.11.2013 09:20 1,1 C 98 % 1026,7 hPa 0,0 l/m 0,0 km/h (0 Bft) O 90 0,8 C 1,4 C 0,0 km/h (0 Bft)
11.11.2013 09:25 1,1 C 98 % 1026,7 hPa 0,0 l/m 0,0 km/h (0 Bft) S 180 0,8 C 1,5 C 0,0 km/h (0 Bft)
11.11.2013 09:30 1,2 C 98 % 1026,7 hPa 0,0 l/m 0,0 km/h (0 Bft) O-SO 112 0,9 C 1,6 C 0,0 km/h (0 Bft)
11.11.2013 09:35 1,3 C 98 % 1026,7 hPa 0,0 l/m 0,2 km/h (0 Bft) O-SO 112 1,0 C 1,8 C 0,0 km/h (0 Bft)
11.11.2013 09:40 1,6 C 98 % 1026,7 hPa 0,0 l/m 0,2 km/h (0 Bft) SO 135 1,3 C 2,1 C 0,0 km/h (0 Bft)
11.11.2013 09:45 1,6 C 98 % 1026,7 hPa 0,0 l/m 0,0 km/h (0 Bft) S 180 1,3 C 2,3 C 0,0 km/h (0 Bft)
11.11.2013 09:50 1,7 C 98 % 1026,9 hPa 0,0 l/m 0,0 km/h (0 Bft) S 180 1,4 C 2,3 C 0,0 km/h (0 Bft)
11.11.2013 09:55 1,8 C 98 % 1026,9 hPa 0,0 l/m 0,0 km/h (0 Bft) O-SO 112 1,5 C 2,4 C 0,0 km/h (0 Bft)
11.11.2013 10:00 1,8 C 98 % 1026,9 hPa 0,7 l/m 0,0 km/h (0 Bft) O-SO 112 1,5 C 2,7 C 0,0 km/h (0 Bft)
11.11.2013 10:05 1,9 C 98 % 1026,9 hPa 0,0 l/m 0,0 km/h (0 Bft) O 90 1,6 C 2,9 C 0,0 km/h (0 Bft)
11.11.2013 10:10 1,8 C 98 % 1027,0 hPa 0,0 l/m 0,8 km/h (0 Bft) O-SO 112 1,5 C 2,9 C 0,0 km/h (0 Bft)
11.11.2013 10:15 1,7 C 98 % 1027,0 hPa 0,0 l/m 0,8 km/h (0 Bft) O-SO 112 1,4 C 2,9 C 0,0 km/h (0 Bft)
11.11.2013 10:20 1,7 C 98 % 1027,0 hPa 0,0 l/m 0,3 km/h (0 Bft) N-NO 22 1,4 C 3,1 C 0,0 km/h (0 Bft)
11.11.2013 10:25 1,7 C 97 % 1027,0 hPa 0,0 l/m 0,3 km/h (0 Bft) N-NO 22 1,3 C 3,1 C 0,0 km/h (0 Bft)
11.11.2013 10:30 1,7 C 97 % 1027,2 hPa 0,0 l/m 0,6 km/h (0 Bft) NO 45 1,3 C 3,1 C 0,0 km/h (0 Bft)
11.11.2013 10:35 1,8 C 97 % 1027,2 hPa 0,0 l/m 0,6 km/h (0 Bft) N 360 1,4 C 3,1 C 2,1 km/h (1 Bft)
11.11.2013 10:40 2,2 C 97 % 1027,2 hPa 0,0 l/m 0,2 km/h (0 Bft) N-NW 337 1,8 C 3,3 C 0,0 km/h (0 Bft)
11.11.2013 10:45 2,0 C 97 % 1027,2 hPa 0,0 l/m 0,2 km/h (0 Bft) N-NW 337 1,6 C 3,6 C 1,9 km/h (1 Bft)
11.11.2013 10:50 1,8 C 97 % 1027,1 hPa 0,0 l/m 0,3 km/h (0 Bft) N-NW 337 1,4 C 3,5 C 3,4 km/h (1 Bft)
11.11.2013 10:55 1,8 C 97 % 1027,1 hPa 0,0 l/m 0,3 km/h (0 Bft) N-NW 337 1,4 C 3,5 C 3,4 km/h (1 Bft)
11.11.2013 11:00 1,9 C 97 % 1027,1 hPa 0,0 l/m 0,3 km/h (0 Bft) N-NW 337 1,5 C 3,5 C 3,4 km/h (1 Bft)
11.11.2013 11:05 1,9 C 97 % 1027,1 hPa 0,0 l/m 0,3 km/h (0 Bft) N-NW 337 1,5 C 3,5 C 3,4 km/h (1 Bft)
11.11.2013 11:10 2,1 C 96 % 1027,2 hPa 0,0 l/m 0,0 km/h (0 Bft) N-NW 337 1,5 C 3,5 C 0,0 km/h (0 Bft)
11.11.2013 11:15 2,0 C 96 % 1027,2 hPa 0,0 l/m 0,0 km/h (0 Bft) N-NW 337 1,4 C 3,5 C 0,0 km/h (0 Bft)
11.11.2013 11:20 2,0 C 96 % 1027,2 hPa 0,0 l/m 0,0 km/h (0 Bft) N-NW 337 1,4 C 3,5 C 0,0 km/h (0 Bft)
11.11.2013 11:25 2,4 C 96 % 1027,2 hPa 0,0 l/m 0,0 km/h (0 Bft) N-NW 337 1,8 C 3,5 C 0,0 km/h (0 Bft)
11.11.2013 11:30 2,6 C 96 % 1027,0 hPa 0,0 l/m 0,0 km/h (0 Bft) N-NW 337 2,0 C 3,5 C 0,0 km/h (0 Bft)
11.11.2013 11:35 2,6 C 96 % 1027,0 hPa 0,0 l/m 0,0 km/h (0 Bft) N-NW 337 2,0 C 3,5 C 0,0 km/h (0 Bft)
11.11.2013 11:40 2,6 C 95 % 1027,0 hPa 0,0 l/m 0,0 km/h (0 Bft) N-NW 337 1,9 C 3,5 C 0,0 km/h (0 Bft)
11.11.2013 11:45 3,1 C 94 % 1027,0 hPa 0,0 l/m 0,0 km/h (0 Bft) N-NW 337 2,2 C 3,5 C 0,0 km/h (0 Bft)
11.11.2013 11:50 3,4 C 94 % 1027,8 hPa 0,0 l/m 0,0 km/h (0 Bft) N-NW 337 2,5 C 3,5 C 0,0 km/h (0 Bft)
11.11.2013 11:55 3,1 C 93 % 1027,8 hPa 0,0 l/m 0,0 km/h (0 Bft) N-NW 337 2,1 C 3,5 C 0,0 km/h (0 Bft)
11.11.2013 12:00 3,1 C 93 % 1027,8 hPa 0,0 l/m 0,0 km/h (0 Bft) N-NW 337 2,1 C 3,5 C 0,0 km/h (0 Bft)
11.11.2013 12:05 3,1 C 93 % 1027,8 hPa 0,7 l/m 0,0 km/h (0 Bft) N-NW 337 2,1 C 3,5 C 0,0 km/h (0 Bft)
11.11.2013 12:10 3,1 C 92 % 1027,9 hPa 0,0 l/m 0,0 km/h (0 Bft) N-NW 337 1,9 C 3,5 C 0,0 km/h (0 Bft)
11.11.2013 12:15 3,0 C 91 % 1027,9 hPa 0,0 l/m 0,0 km/h (0 Bft) N-NW 337 1,7 C 3,5 C 0,0 km/h (0 Bft)
11.11.2013 12:20 3,3 C 91 % 1027,9 hPa 0,7 l/m 0,0 km/h (0 Bft) N-NW 337 2,0 C 3,5 C 0,0 km/h (0 Bft)
11.11.2013 12:25 3,4 C 91 % 1027,9 hPa 0,0 l/m 0,0 km/h (0 Bft) N-NW 337 2,1 C 3,5 C 0,0 km/h (0 Bft)
11.11.2013 12:30 3,3 C 90 % 1028,0 hPa 0,7 l/m 0,0 km/h (0 Bft) N-NW 337 1,8 C 3,5 C 0,0 km/h (0 Bft)
11.11.2013 12:35 3,6 C 90 % 1028,0 hPa 0,0 l/m 0,0 km/h (0 Bft) N-NW 337 2,1 C 3,5 C 0,0 km/h (0 Bft)
11.11.2013 12:40 3,7 C 91 % 1028,0 hPa 0,0 l/m 0,0 km/h (0 Bft) N-NW 337 2,4 C 3,5 C 0,0 km/h (0 Bft)
11.11.2013 12:45 3,6 C 90 % 1028,0 hPa 0,0 l/m 0,0 km/h (0 Bft) N-NW 337 2,1 C 3,5 C 0,0 km/h (0 Bft)
11.11.2013 12:50 3,6 C 90 % 1028,1 hPa 0,0 l/m 0,0 km/h (0 Bft) N-NW 337 2,1 C 3,5 C 0,0 km/h (0 Bft)
11.11.2013 12:55 3,3 C 89 % 1028,1 hPa 0,0 l/m 0,0 km/h (0 Bft) N-NW 337 1,7 C 3,5 C 0,0 km/h (0 Bft)
11.11.2013 13:00 3,4 C 88 % 1028,1 hPa 0,0 l/m 0,0 km/h (0 Bft) N-NW 337 1,6 C 3,5 C 0,0 km/h (0 Bft)
11.11.2013 13:05 3,4 C 88 % 1028,1 hPa 0,0 l/m 0,0 km/h (0 Bft) N-NW 337 1,6 C 3,5 C 0,0 km/h (0 Bft)
11.11.2013 13:10 3,3 C 87 % 1028,1 hPa 0,0 l/m 0,0 km/h (0 Bft) N-NW 337 1,3 C 3,5 C 0,0 km/h (0 Bft)
11.11.2013 13:15 3,4 C 88 % 1028,1 hPa 0,0 l/m 0,0 km/h (0 Bft) N-NW 337 1,6 C 3,5 C 0,0 km/h (0 Bft)
11.11.2013 13:20 3,6 C 88 % 1028,1 hPa 0,0 l/m 0,0 km/h (0 Bft) N-NW 337 1,8 C 3,5 C 0,0 km/h (0 Bft)
11.11.2013 13:25 3,6 C 89 % 1028,1 hPa 0,0 l/m 0,0 km/h (0 Bft) N-NW 337 2,0 C 3,5 C 0,0 km/h (0 Bft)
11.11.2013 13:30 3,7 C 89 % 1027,8 hPa 0,0 l/m 0,0 km/h (0 Bft) N-NW 337 2,1 C 3,5 C 0,0 km/h (0 Bft)
11.11.2013 13:35 3,7 C 89 % 1027,8 hPa 0,0 l/m 0,0 km/h (0 Bft) N-NW 337 2,1 C 3,5 C 0,0 km/h (0 Bft)
11.11.2013 13:40 4,0 C 88 % 1027,8 hPa 0,0 l/m 0,0 km/h (0 Bft) N-NW 337 2,2 C 3,5 C 0,0 km/h (0 Bft)
11.11.2013 13:45 3,7 C 88 % 1027,8 hPa 0,0 l/m 0,0 km/h (0 Bft) N-NW 337 1,9 C 3,5 C 0,0 km/h (0 Bft)
11.11.2013 13:48 3,7 C 87 % 1027,7 hPa 0,0 l/m 0,0 km/h (0 Bft) N-NW 337 1,7 C 3,5 C 0,0 km/h (0 Bft)
11.11.2013 13:50 3,7 C 87 % 1027,7 hPa 0,0 l/m 0,0 km/h (0 Bft) N-NW 337 1,7 C 3,5 C 0,0 km/h (0 Bft)
11.11.2013 13:55 3,8 C 88 % 1027,7 hPa 0,0 l/m 0,0 km/h (0 Bft) N-NW 337 2,0 C 3,5 C 0,0 km/h (0 Bft)
11.11.2013 14:00 3,8 C 88 % 1027,7 hPa 0,0 l/m 0,0 km/h (0 Bft) N-NW 337 2,0 C 3,5 C 0,0 km/h (0 Bft)
11.11.2013 14:05 3,6 C 87 % 1027,7 hPa 0,0 l/m 0,0 km/h (0 Bft) N-NW 337 1,6 C 3,5 C 0,0 km/h (0 Bft)
11.11.2013 14:10 3,6 C 87 % 1027,8 hPa 0,0 l/m 0,0 km/h (0 Bft) N-NW 337 1,6 C 3,5 C 0,0 km/h (0 Bft)
11.11.2013 14:15 3,5 C 88 % 1027,8 hPa 0,0 l/m 0,0 km/h (0 Bft) N-NW 337 1,7 C 3,5 C 0,0 km/h (0 Bft)
11.11.2013 14:20 3,4 C 86 % 1027,8 hPa 0,0 l/m 0,0 km/h (0 Bft) N-NW 337 1,3 C 3,5 C 0,0 km/h (0 Bft)
11.11.2013 14:25 3,5 C 87 % 1027,8 hPa 0,0 l/m 0,0 km/h (0 Bft) N-NW 337 1,5 C 3,5 C 0,0 km/h (0 Bft)
11.11.2013 14:30 3,5 C 88 % 1028,2 hPa 0,0 l/m 0,0 km/h (0 Bft) N-NW 337 1,7 C 3,5 C 0,0 km/h (0 Bft)
11.11.2013 14:35 3,3 C 86 % 1028,2 hPa 0,0 l/m 0,0 km/h (0 Bft) N-NW 337 1,2 C 3,5 C 0,0 km/h (0 Bft)
11.11.2013 14:40 3,2 C 87 % 1028,2 hPa 0,0 l/m 0,0 km/h (0 Bft) N-NW 337 1,2 C 3,5 C 0,0 km/h (0 Bft)
11.11.2013 14:45 3,2 C 88 % 1028,2 hPa 0,0 l/m 0,0 km/h (0 Bft) N-NW 337 1,4 C 3,5 C 0,0 km/h (0 Bft)
11.11.2013 14:50 3,3 C 89 % 1028,4 hPa 0,0 l/m 0,0 km/h (0 Bft) N-NW 337 1,7 C 3,5 C 0,0 km/h (0 Bft)
11.11.2013 14:55 3,1 C 88 % 1028,4 hPa 0,0 l/m 0,0 km/h (0 Bft) N-NW 337 1,3 C 3,5 C 0,0 km/h (0 Bft)
11.11.2013 15:00 3,0 C 87 % 1028,4 hPa 0,0 l/m 0,0 km/h (0 Bft) N-NW 337 1,1 C 3,5 C 0,0 km/h (0 Bft)
11.11.2013 15:05 3,0 C 87 % 1028,4 hPa 0,0 l/m 0,0 km/h (0 Bft) N-NW 337 1,1 C 3,5 C 0,0 km/h (0 Bft)
11.11.2013 15:10 3,1 C 89 % 1028,5 hPa 0,0 l/m 0,0 km/h (0 Bft) N-NW 337 1,5 C 3,5 C 0,0 km/h (0 Bft)
11.11.2013 15:15 3,1 C 89 % 1028,5 hPa 0,0 l/m 0,0 km/h (0 Bft) N-NW 337 1,5 C 3,5 C 0,0 km/h (0 Bft)
11.11.2013 15:20 3,0 C 89 % 1028,5 hPa 0,0 l/m 0,0 km/h (0 Bft) N-NW 337 1,4 C 3,5 C 0,0 km/h (0 Bft)
11.11.2013 15:25 3,1 C 90 % 1028,5 hPa 0,0 l/m 0,0 km/h (0 Bft) N-NW 337 1,6 C 3,5 C 0,0 km/h (0 Bft)
11.11.2013 15:30 2,9 C 91 % 1028,6 hPa 0,0 l/m 0,0 km/h (0 Bft) N-NW 337 1,6 C 3,5 C 0,0 km/h (0 Bft)
11.11.2013 15:35 2,9 C 90 % 1028,6 hPa 0,0 l/m 0,0 km/h (0 Bft) N-NW 337 1,4 C 3,5 C 0,0 km/h (0 Bft)
11.11.2013 15:40 2,8 C 89 % 1028,6 hPa 0,0 l/m 0,0 km/h (0 Bft) N-NW 337 1,2 C 3,5 C 0,0 km/h (0 Bft)
11.11.2013 15:45 2,7 C 89 % 1028,6 hPa 0,0 l/m 0,0 km/h (0 Bft) N-NW 337 1,1 C 3,5 C 0,0 km/h (0 Bft)
11.11.2013 15:50 2,7 C 89 % 1028,6 hPa 0,0 l/m 0,0 km/h (0 Bft) N-NW 337 1,1 C 3,5 C 0,0 km/h (0 Bft)
11.11.2013 15:55 2,6 C 89 % 1028,6 hPa 0,0 l/m 0,0 km/h (0 Bft) N-NW 337 1,0 C 3,5 C 0,0 km/h (0 Bft)
11.11.2013 16:00 2,5 C 90 % 1028,6 hPa 0,0 l/m 0,0 km/h (0 Bft) N-NW 337 1,0 C 3,5 C 0,0 km/h (0 Bft)
11.11.2013 16:05 2,5 C 90 % 1028,6 hPa 0,0 l/m 0,0 km/h (0 Bft) N-NW 337 1,0 C 3,5 C 0,0 km/h (0 Bft)
11.11.2013 16:10 2,0 C 91 % 1028,4 hPa 0,0 l/m 0,0 km/h (0 Bft) N-NW 337 0,7 C 3,5 C 0,0 km/h (0 Bft)
11.11.2013 16:15 1,7 C 91 % 1028,4 hPa 0,0 l/m 0,0 km/h (0 Bft) N-NW 337 0,4 C 3,5 C 0,0 km/h (0 Bft)
11.11.2013 16:20 1,4 C 92 % 1028,4 hPa 0,0 l/m 0,0 km/h (0 Bft) N-NW 337 0,2 C 3,5 C 0,0 km/h (0 Bft)
11.11.2013 16:25 1,3 C 92 % 1028,4 hPa 0,0 l/m 0,0 km/h (0 Bft) N-NW 337 0,1 C 3,5 C 0,0 km/h (0 Bft)
11.11.2013 16:30 1,1 C 92 % 1028,6 hPa 0,0 l/m 0,0 km/h (0 Bft) N-NW 337 -0,1 C 3,5 C 0,0 km/h (0 Bft)
11.11.2013 16:35 1,0 C 92 % 1028,6 hPa 0,0 l/m 0,0 km/h (0 Bft) N-NW 337 -0,2 C 3,5 C 0,0 km/h (0 Bft)
11.11.2013 16:40 1,2 C 93 % 1028,6 hPa 0,0 l/m 0,0 km/h (0 Bft) N-NW 337 0,2 C 3,5 C 0,0 km/h (0 Bft)
11.11.2013 16:45 1,3 C 93 % 1028,6 hPa 0,0 l/m 0,0 km/h (0 Bft) N-NW 337 0,3 C 3,5 C 0,0 km/h (0 Bft)
11.11.2013 16:50 1,3 C 93 % 1028,6 hPa 0,0 l/m 0,0 km/h (0 Bft) N-NW 337 0,3 C 3,5 C 0,0 km/h (0 Bft)
11.11.2013 16:55 1,4 C 93 % 1028,6 hPa 0,0 l/m 0,0 km/h (0 Bft) N-NW 337 0,4 C 3,5 C 0,0 km/h (0 Bft)
11.11.2013 17:00 1,4 C 94 % 1028,6 hPa 0,0 l/m 0,0 km/h (0 Bft) N-NW 337 0,5 C 3,5 C 0,0 km/h (0 Bft)
11.11.2013 17:05 1,3 C 94 % 1028,6 hPa 0,0 l/m 0,0 km/h (0 Bft) N-NW 337 0,4 C 3,5 C 0,0 km/h (0 Bft)
11.11.2013 17:10 1,3 C 94 % 1028,6 hPa 0,0 l/m 0,0 km/h (0 Bft) N-NW 337 0,4 C 3,5 C 0,0 km/h (0 Bft)
11.11.2013 17:15 1,3 C 94 % 1028,6 hPa 0,0 l/m 0,0 km/h (0 Bft) N-NW 337 0,4 C 3,5 C 0,0 km/h (0 Bft)
11.11.2013 17:20 1,1 C 94 % 1028,6 hPa 0,0 l/m 0,0 km/h (0 Bft) N-NW 337 0,2 C 3,5 C 0,0 km/h (0 Bft)
11.11.2013 17:25 1,0 C 94 % 1028,6 hPa 0,0 l/m 0,0 km/h (0 Bft) N-NW 337 0,1 C 3,5 C 0,0 km/h (0 Bft)
11.11.2013 17:30 0,7 C 94 % 1028,7 hPa 0,0 l/m 0,0 km/h (0 Bft) N-NW 337 -0,2 C 3,5 C 0,0 km/h (0 Bft)
11.11.2013 17:35 0,5 C 94 % 1028,7 hPa 0,0 l/m 2,1 km/h (1 Bft) N-NO 22 -0,4 C 0,5 C 2,7 km/h (1 Bft)
11.11.2013 17:40 0,3 C 94 % 1028,7 hPa 0,0 l/m 1,3 km/h (1 Bft) O 90 -0,5 C 0,2 C 0,0 km/h (0 Bft)
11.11.2013 17:45 0,3 C 94 % 1028,7 hPa 0,0 l/m 1,0 km/h (0 Bft) O-SO 112 -0,5 C -0,1 C 0,0 km/h (0 Bft)
11.11.2013 17:50 0,1 C 94 % 1028,8 hPa 0,0 l/m 0,5 km/h (0 Bft) O-NO 67 -0,7 C -0,3 C 2,6 km/h (1 Bft)
11.11.2013 17:55 0,0 C 94 % 1028,8 hPa 0,0 l/m 0,3 km/h (0 Bft) N 360 -0,8 C -0,4 C 0,0 km/h (0 Bft)
11.11.2013 18:00 0,0 C 94 % 1028,8 hPa 0,0 l/m 0,8 km/h (0 Bft) N 360 -0,8 C -0,4 C 0,0 km/h (0 Bft)
11.11.2013 18:05 0,0 C 94 % 1028,8 hPa 0,0 l/m 1,0 km/h (0 Bft) NO 45 -0,8 C -0,4 C 2,1 km/h (1 Bft)
11.11.2013 18:10 -0,2 C 94 % 1028,6 hPa 0,0 l/m 0,8 km/h (0 Bft) N-NW 337 -1,0 C -0,4 C 0,0 km/h (0 Bft)
11.11.2013 18:15 -0,3 C 94 % 1028,6 hPa 0,0 l/m 0,8 km/h (0 Bft) N 360 -1,1 C -0,4 C 0,0 km/h (0 Bft)
11.11.2013 18:20 -0,3 C 94 % 1028,6 hPa 0,0 l/m 0,3 km/h (0 Bft) NO 45 -1,1 C -0,8 C 0,0 km/h (0 Bft)
11.11.2013 18:25 -0,3 C 94 % 1028,6 hPa 0,0 l/m 0,5 km/h (0 Bft) NO 45 -1,1 C -1,0 C 0,0 km/h (0 Bft)
11.11.2013 18:30 -0,4 C 94 % 1028,8 hPa 0,0 l/m 1,4 km/h (1 Bft) N-NO 22 -1,2 C -1,1 C 0,0 km/h (0 Bft)
11.11.2013 18:35 -0,7 C 94 % 1028,8 hPa 0,0 l/m 1,1 km/h (1 Bft) NO 45 -1,5 C -1,3 C 0,0 km/h (0 Bft)
11.11.2013 18:40 -0,7 C 94 % 1028,8 hPa 0,0 l/m 1,0 km/h (0 Bft) O-NO 67 -1,5 C -1,5 C 3,7 km/h (1 Bft)
11.11.2013 18:45 -0,8 C 94 % 1028,8 hPa 0,0 l/m 1,3 km/h (1 Bft) NO 45 -1,6 C -1,5 C 2,3 km/h (1 Bft)
11.11.2013 18:48 -0,9 C 94 % 1028,7 hPa 0,0 l/m 1,3 km/h (1 Bft) NO 45 -1,7 C -1,5 C 2,3 km/h (1 Bft)
11.11.2013 18:50 -0,9 C 94 % 1028,7 hPa 0,0 l/m 1,3 km/h (1 Bft) NO 45 -1,7 C -1,5 C 2,3 km/h (1 Bft)
11.11.2013 18:55 -1,0 C 94 % 1028,7 hPa 0,0 l/m 1,6 km/h (1 Bft) O-NO 67 -1,8 C -1,6 C 3,7 km/h (1 Bft)
11.11.2013 19:00 -0,8 C 94 % 1028,7 hPa 0,0 l/m 2,7 km/h (1 Bft) O-NO 67 -1,6 C -1,9 C 4,2 km/h (1 Bft)
11.11.2013 19:05 -0,8 C 94 % 1028,7 hPa 0,0 l/m 3,4 km/h (1 Bft) O-NO 67 -1,6 C -2,1 C 3,4 km/h (1 Bft)
11.11.2013 19:10 -0,9 C 95 % 1028,8 hPa 0,0 l/m 1,8 km/h (1 Bft) O-NO 67 -1,6 C -0,9 C 0,0 km/h (0 Bft)
11.11.2013 19:15 -1,2 C 94 % 1028,8 hPa 0,0 l/m 0,6 km/h (0 Bft) O-NO 67 -2,0 C -1,2 C 0,0 km/h (0 Bft)
11.11.2013 19:20 -1,6 C 94 % 1028,8 hPa 0,0 l/m 0,0 km/h (0 Bft) O-NO 67 -2,4 C -1,5 C 0,0 km/h (0 Bft)
11.11.2013 19:25 -1,7 C 94 % 1028,8 hPa 0,0 l/m 0,8 km/h (0 Bft) O-NO 67 -2,5 C -1,5 C 4,0 km/h (1 Bft)
11.11.2013 19:30 -1,2 C 95 % 1028,5 hPa 0,0 l/m 2,3 km/h (1 Bft) O-NO 67 -1,9 C -1,5 C 3,7 km/h (1 Bft)
11.11.2013 19:35 -0,9 C 95 % 1028,5 hPa 0,0 l/m 2,9 km/h (1 Bft) O-NO 67 -1,6 C -1,9 C 2,3 km/h (1 Bft)
11.11.2013 19:40 -1,0 C 95 % 1028,5 hPa 0,0 l/m 2,7 km/h (1 Bft) O-NO 67 -1,7 C -1,8 C 2,9 km/h (1 Bft)
11.11.2013 19:45 -1,1 C 95 % 1028,5 hPa 0,0 l/m 2,6 km/h (1 Bft) O-NO 67 -1,8 C -1,7 C 4,3 km/h (1 Bft)
11.11.2013 19:50 -1,1 C 95 % 1028,4 hPa 0,0 l/m 2,7 km/h (1 Bft) O-NO 67 -1,8 C -1,8 C 7,6 km/h (2 Bft)
11.11.2013 19:55 -1,1 C 95 % 1028,4 hPa 0,0 l/m 2,4 km/h (1 Bft) O-NO 67 -1,8 C -1,5 C 1,8 km/h (1 Bft)
11.11.2013 20:00 -1,2 C 95 % 1028,4 hPa 0,0 l/m 1,1 km/h (1 Bft) O-NO 67 -1,9 C -1,5 C 0,0 km/h (0 Bft)
11.11.2013 20:05 -1,3 C 95 % 1028,4 hPa 0,0 l/m 0,6 km/h (0 Bft) O-NO 67 -2,0 C -1,6 C 2,3 km/h (1 Bft)
11.11.2013 20:10 -0,9 C 95 % 1028,4 hPa 0,0 l/m 0,6 km/h (0 Bft) O-NO 67 -1,6 C -1,7 C 1,8 km/h (1 Bft)
11.11.2013 20:15 -0,9 C 95 % 1028,4 hPa 0,0 l/m 0,8 km/h (0 Bft) O-NO 67 -1,6 C -1,8 C 1,9 km/h (1 Bft)
11.11.2013 20:20 -1,2 C 95 % 1028,4 hPa 0,0 l/m 0,5 km/h (0 Bft) O-NO 67 -1,9 C -2,0 C 0,0 km/h (0 Bft)
11.11.2013 20:25 -1,2 C 95 % 1028,4 hPa 0,0 l/m 0,5 km/h (0 Bft) O-NO 67 -1,9 C -2,1 C 2,7 km/h (1 Bft)
11.11.2013 20:30 -1,2 C 95 % 1028,3 hPa 0,0 l/m 1,4 km/h (1 Bft) O-NO 67 -1,9 C -1,9 C 2,3 km/h (1 Bft)
11.11.2013 20:35 -1,2 C 95 % 1028,3 hPa 0,0 l/m 2,1 km/h (1 Bft) O-NO 67 -1,9 C -1,8 C 2,3 km/h (1 Bft)
11.11.2013 20:40 -1,3 C 95 % 1028,3 hPa 0,0 l/m 1,3 km/h (1 Bft) O-NO 67 -2,0 C -1,9 C 0,0 km/h (0 Bft)
11.11.2013 20:45 -1,6 C 95 % 1028,3 hPa 0,0 l/m 0,5 km/h (0 Bft) O-NO 67 -2,3 C -2,1 C 0,0 km/h (0 Bft)
11.11.2013 20:50 -2,2 C 95 % 1028,3 hPa 0,0 l/m 0,0 km/h (0 Bft) O-NO 67 -2,9 C -2,6 C 0,0 km/h (0 Bft)
11.11.2013 20:55 -1,7 C 95 % 1028,3 hPa 0,0 l/m 0,0 km/h (0 Bft) O-NO 67 -2,4 C -2,7 C 0,0 km/h (0 Bft)
11.11.2013 21:00 -1,3 C 95 % 1028,3 hPa 0,0 l/m 0,6 km/h (0 Bft) O-NO 67 -2,0 C -2,1 C 0,0 km/h (0 Bft)
11.11.2013 21:05 -0,9 C 95 % 1028,3 hPa 0,0 l/m 1,0 km/h (0 Bft) O-NO 67 -1,6 C -1,6 C 6,1 km/h (2 Bft)
11.11.2013 21:10 -0,5 C 95 % 1028,1 hPa 0,0 l/m 0,8 km/h (0 Bft) O-NO 67 -1,2 C -1,0 C 3,4 km/h (1 Bft)
11.11.2013 21:15 -0,4 C 95 % 1028,1 hPa 0,0 l/m 0,8 km/h (0 Bft) O-NO 67 -1,1 C -0,7 C 1,9 km/h (1 Bft)
11.11.2013 21:20 -0,3 C 95 % 1028,1 hPa 0,0 l/m 2,3 km/h (1 Bft) O-NO 67 -1,0 C -0,4 C 5,5 km/h (1 Bft)
11.11.2013 21:25 -0,3 C 95 % 1028,1 hPa 0,0 l/m 2,7 km/h (1 Bft) O-NO 67 -1,0 C -0,7 C 4,5 km/h (1 Bft)
11.11.2013 21:30 -0,3 C 95 % 1028,1 hPa 0,0 l/m 3,1 km/h (1 Bft) O-NO 67 -1,0 C -0,8 C 0,0 km/h (0 Bft)
11.11.2013 21:35 -0,3 C 96 % 1028,1 hPa 0,0 l/m 2,6 km/h (1 Bft) O-NO 67 -0,9 C -0,6 C 0,0 km/h (0 Bft)
11.11.2013 21:40 -0,3 C 96 % 1028,1 hPa 0,0 l/m 1,9 km/h (1 Bft) O-NO 67 -0,9 C -0,4 C 3,5 km/h (1 Bft)
11.11.2013 21:45 -0,3 C 96 % 1028,1 hPa 0,0 l/m 2,4 km/h (1 Bft) O-NO 67 -0,9 C -0,4 C 3,1 km/h (1 Bft)
11.11.2013 21:50 -0,3 C 96 % 1027,9 hPa 0,0 l/m 2,1 km/h (1 Bft) O-NO 67 -0,9 C -0,4 C 3,5 km/h (1 Bft)
11.11.2013 21:55 -0,3 C 96 % 1027,9 hPa 0,0 l/m 1,4 km/h (1 Bft) O-NO 67 -0,9 C -0,4 C 1,8 km/h (1 Bft)
11.11.2013 22:00 -0,4 C 96 % 1027,9 hPa 0,0 l/m 2,4 km/h (1 Bft) O-NO 67 -1,0 C -0,4 C 5,5 km/h (1 Bft)
11.11.2013 22:05 -0,5 C 96 % 1027,9 hPa 0,0 l/m 3,2 km/h (1 Bft) O-NO 67 -1,1 C -1,0 C 3,9 km/h (1 Bft)
11.11.2013 22:10 -0,4 C 96 % 1027,8 hPa 0,0 l/m 2,4 km/h (1 Bft) O-NO 67 -1,0 C -0,6 C 0,0 km/h (0 Bft)
11.11.2013 22:15 -0,5 C 96 % 1027,8 hPa 0,0 l/m 1,8 km/h (1 Bft) O-NO 67 -1,1 C -0,5 C 2,3 km/h (1 Bft)
11.11.2013 22:20 -0,5 C 96 % 1027,8 hPa 0,0 l/m 1,6 km/h (1 Bft) O-NO 67 -1,1 C -0,5 C 2,4 km/h (1 Bft)
11.11.2013 22:25 -0,5 C 96 % 1027,8 hPa 0,0 l/m 1,8 km/h (1 Bft) O-NO 67 -1,1 C -0,5 C 2,4 km/h (1 Bft)
11.11.2013 22:30 -0,5 C 96 % 1027,7 hPa 0,0 l/m 1,3 km/h (1 Bft) O-NO 67 -1,1 C -0,6 C 1,9 km/h (1 Bft)
11.11.2013 22:35 -0,5 C 96 % 1027,7 hPa 0,0 l/m 1,4 km/h (1 Bft) O-NO 67 -1,1 C -0,6 C 2,9 km/h (1 Bft)
11.11.2013 22:40 -0,6 C 96 % 1027,7 hPa 0,0 l/m 1,4 km/h (1 Bft) O-NO 67 -1,2 C -0,7 C 0,0 km/h (0 Bft)
11.11.2013 22:45 -0,7 C 96 % 1027,7 hPa 0,0 l/m 1,3 km/h (1 Bft) O-NO 67 -1,3 C -0,8 C 1,8 km/h (1 Bft)
11.11.2013 22:50 -0,9 C 96 % 1028,1 hPa 0,0 l/m 1,8 km/h (1 Bft) O-NO 67 -1,5 C -1,2 C 0,0 km/h (0 Bft)
11.11.2013 22:55 -1,2 C 96 % 1028,1 hPa 0,0 l/m 1,3 km/h (1 Bft) O-NO 67 -1,8 C -1,5 C 0,0 km/h (0 Bft)
11.11.2013 23:00 -1,6 C 96 % 1028,1 hPa 0,0 l/m 0,0 km/h (0 Bft) O-NO 67 -2,2 C -1,9 C 0,0 km/h (0 Bft)
11.11.2013 23:05 -1,7 C 96 % 1028,1 hPa 0,0 l/m 0,0 km/h (0 Bft) O-NO 67 -2,3 C -2,1 C 0,0 km/h (0 Bft)
11.11.2013 23:10 -1,8 C 96 % 1028,4 hPa 0,0 l/m 0,0 km/h (0 Bft) O-NO 67 -2,4 C -2,3 C 1,9 km/h (1 Bft)
11.11.2013 23:15 -1,8 C 96 % 1028,4 hPa 0,0 l/m 0,5 km/h (0 Bft) O-NO 67 -2,4 C -2,3 C 3,1 km/h (1 Bft)
11.11.2013 23:20 -1,6 C 96 % 1028,4 hPa 0,0 l/m 1,9 km/h (1 Bft) O-NO 67 -2,2 C -2,1 C 2,9 km/h (1 Bft)
11.11.2013 23:25 -1,6 C 96 % 1028,4 hPa 0,0 l/m 2,6 km/h (1 Bft) O-NO 67 -2,2 C -2,4 C 3,5 km/h (1 Bft)
11.11.2013 23:30 -2,0 C 96 % 1028,7 hPa 0,0 l/m 1,9 km/h (1 Bft) O-NO 67 -2,6 C -2,2 C 2,7 km/h (1 Bft)
11.11.2013 23:35 -2,0 C 95 % 1028,7 hPa 0,0 l/m 2,1 km/h (1 Bft) O-NO 67 -2,7 C -2,2 C 2,4 km/h (1 Bft)
11.11.2013 23:40 -2,4 C 95 % 1028,7 hPa 0,0 l/m 2,3 km/h (1 Bft) O-NO 67 -3,1 C -2,3 C 4,0 km/h (1 Bft)
11.11.2013 23:45 -2,4 C 95 % 1028,7 hPa 0,0 l/m 1,8 km/h (1 Bft) O-NO 67 -3,1 C -2,3 C 3,1 km/h (1 Bft)
11.11.2013 23:48 -2,1 C 95 % 1028,3 hPa 0,0 l/m 2,7 km/h (1 Bft) O-NO 67 -2,8 C -2,7 C 4,2 km/h (1 Bft)
11.11.2013 23:50 -2,1 C 95 % 1028,3 hPa 0,0 l/m 2,7 km/h (1 Bft) O-NO 67 -2,8 C -2,7 C 4,2 km/h (1 Bft)
11.11.2013 23:55 -1,6 C 96 % 1028,3 hPa 0,0 l/m 3,4 km/h (1 Bft) O-NO 67 -2,2 C -3,0 C 4,0 km/h (1 Bft)
_ Min-Zeit 23:45 14:35 00:05 - 23:10 - - 23:45 23:55 23:05
Minimum _ -2,4 C 86 % 1019,2 hPa - 0,0 km/h (0 Bft) - - -3,1 C -3,0 C 0,0 km/h (0 Bft)
_ Max-Zeit 13:40 10:20 19:25 12:30 04:40 - - 11:50 10:45 19:50
Maximum _ 4,0 C 98 % 1028,8 hPa 0,7 l/m 4,0 km/h
S-SO (1 Bft)
- - 2,5 C 3,6 C 7,6 km/h
O-NO (2 Bft)
Durchschnitt _ 0,8 C 95 % 1026,2 hPa #2,7 l/m 0,7 km/h (0 Bft) O-NO - 0,1 C 0,7 C 1,0 km/h (0 Bft)